Location: Shannon
(40.5500°S, 175.4167°E)
Time: 21:05:56
(UTC+00:00)

METEOR-M - Pass Details

Date: 17 November 2025
Orbit: 812 x 817 km, 98.7° (Epoch: 14 December)

Event Time Altitude Azimuth Distance (km) Brightness Sun altitude
Exits shadow 15:08:15 20° 349° (N) 1,796 5.4 -16.5°
Maximum altitude 15:11:45 51° 280° (W) 1,025 4.3 -16.0°
Drops below altitude 10° 15:17:00 10° 204° (SSW) 2,436 6.8 -15.3°
Sets 15:19:27 0° 198° (SSW) 3,376 7.7 -14.9°
